owner,sensor,date,latitude,longitude,vertical_datum,sea_water_practical_salinity,qcFlag 
ENP,ioos.station.NOAA.NDBC:JKYF1:1,2017-11-01T00:00:00Z,25.0530,-80.9040,1.5,32.27,1111122 
ENP,ioos.station.NOAA.NDBC:JKYF1:1,2017-11-01T02:00:00Z,25.0530,-80.9040,1.5,32.11,1111122 
ENP,ioos.station.NOAA.NDBC:JKYF1:1,2017-11-01T03:00:00Z,25.0530,-80.9040,1.5,32.25,1111122 
ENP,ioos.station.NOAA.NDBC:JKYF1:1,2017-11-01T06:00:00Z,25.0530,-80.9040,1.5,32.39,1111122 
ENP,ioos.station.NOAA.NDBC:JKYF1:1,2017-11-01T07:00:00Z,25.0530,-80.9040,1.5,32.69,1111122 
ENP,ioos.station.NOAA.NDBC:JKYF1:1,2017-11-01T08:00:00Z,25.0530,-80.9040,1.5,33.0,1111122 
ENP,ioos.station.NOAA.NDBC:JKYF1:1,2017-11-01T11:00:00Z,25.0530,-80.9040,1.5,33.09,1111122 
ENP,ioos.station.NOAA.NDBC:JKYF1:1,2017-11-01T12:00:00Z,25.0530,-80.9040,1.5,32.96,1111122 
ENP,ioos.station.NOAA.NDBC:JKYF1:1,2017-11-01T13:00:00Z,25.0530,-80.9040,1.5,32.74,1111122 
ENP,ioos.station.NOAA.NDBC:JKYF1:1,2017-11-01T14:00:00Z,25.0530,-80.9040,1.5,32.42,1111122 
ENP,ioos.station.NOAA.NDBC:JKYF1:1,2017-11-01T15:00:00Z,25.0530,-80.9040,1.5,32.59,1111122 
ENP,ioos.station.NOAA.NDBC:JKYF1:1,2017-11-01T16:00:00Z,25.0530,-80.9040,1.5,32.97,1111122 
ENP,ioos.station.NOAA.NDBC:JKYF1:1,2017-11-01T17:00:00Z,25.0530,-80.9040,1.5,33.02,1111122 
ENP,ioos.station.NOAA.NDBC:JKYF1:1,2017-11-01T18:00:00Z,25.0530,-80.9040,1.5,33.1,1111122 
ENP,ioos.station.NOAA.NDBC:JKYF1:1,2017-11-01T19:00:00Z,25.0530,-80.9040,1.5,33.28,1111122 
ENP,ioos.station.NOAA.NDBC:JKYF1:1,2017-11-01T20:00:00Z,25.0530,-80.9040,1.5,33.42,1111122 
ENP,ioos.station.NOAA.NDBC:JKYF1:1,2017-11-01T21:00:00Z,25.0530,-80.9040,1.5,33.5,1111122 
ENP,ioos.station.NOAA.NDBC:JKYF1:1,2017-11-01T22:00:00Z,25.0530,-80.9040,1.5,33.55,1111122 
ENP,ioos.station.NOAA.NDBC:JKYF1:1,2017-11-01T23:00:00Z,25.0530,-80.9040,1.5,33.58,1111122 
ENP,ioos.station.NOAA.NDBC:JKYF1:1,2017-11-02T00:00:00Z,25.0530,-80.9040,1.5,33.58,1111122 
ENP,ioos.station.NOAA.NDBC:JKYF1:1,2017-11-02T02:00:00Z,25.0530,-80.9040,1.5,33.58,1111122 
ENP,ioos.station.NOAA.NDBC:JKYF1:1,2017-11-02T03:00:00Z,25.0530,-80.9040,1.5,33.59,1111122 
ENP,ioos.station.NOAA.NDBC:JKYF1:1,2017-11-02T05:00:00Z,25.0530,-80.9040,1.5,33.61,1111122 
ENP,ioos.station.NOAA.NDBC:JKYF1:1,2017-11-02T06:00:00Z,25.0530,-80.9040,1.5,33.64,1111122 
ENP,ioos.station.NOAA.NDBC:JKYF1:1,2017-11-02T07:00:00Z,25.0530,-80.9040,1.5,33.65,1111122 
ENP,ioos.station.NOAA.NDBC:JKYF1:1,2017-11-02T08:00:00Z,25.0530,-80.9040,1.5,33.66,1111122 
ENP,ioos.station.NOAA.NDBC:JKYF1:1,2017-11-02T10:00:00Z,25.0530,-80.9040,1.5,33.7,1111122 
ENP,ioos.station.NOAA.NDBC:JKYF1:1,2017-11-02T11:00:00Z,25.0530,-80.9040,1.5,33.73,1111122 
ENP,ioos.station.NOAA.NDBC:JKYF1:1,2017-11-02T12:00:00Z,25.0530,-80.9040,1.5,33.78,1111122 
ENP,ioos.station.NOAA.NDBC:JKYF1:1,2017-11-02T13:00:00Z,25.0530,-80.9040,1.5,33.79,1111122 
ENP,ioos.station.NOAA.NDBC:JKYF1:1,2017-11-02T14:00:00Z,25.0530,-80.9040,1.5,33.7,1111122 
ENP,ioos.station.NOAA.NDBC:JKYF1:1,2017-11-02T15:00:00Z,25.0530,-80.9040,1.5,33.61,1111122 
ENP,ioos.station.NOAA.NDBC:JKYF1:1,2017-11-02T16:00:00Z,25.0530,-80.9040,1.5,33.71,1111122 
ENP,ioos.station.NOAA.NDBC:JKYF1:1,2017-11-02T17:00:00Z,25.0530,-80.9040,1.5,33.73,1111122 
ENP,ioos.station.NOAA.NDBC:JKYF1:1,2017-11-02T18:00:00Z,25.0530,-80.9040,1.5,33.78,1111122 
ENP,ioos.station.NOAA.NDBC:JKYF1:1,2017-11-02T19:00:00Z,25.0530,-80.9040,1.5,33.71,1111122 
ENP,ioos.station.NOAA.NDBC:JKYF1:1,2017-11-02T20:00:00Z,25.0530,-80.9040,1.5,33.55,1111122 
ENP,ioos.station.NOAA.NDBC:JKYF1:1,2017-11-02T21:00:00Z,25.0530,-80.9040,1.5,33.47,1111122 
ENP,ioos.station.NOAA.NDBC:JKYF1:1,2017-11-02T22:00:00Z,25.0530,-80.9040,1.5,33.48,1111122 
ENP,ioos.station.NOAA.NDBC:JKYF1:1,2017-11-02T23:00:00Z,25.0530,-80.9040,1.5,33.51,1111122 
ENP,ioos.station.NOAA.NDBC:JKYF1:1,2017-11-03T00:00:00Z,25.0530,-80.9040,1.5,33.53,1111122 
ENP,ioos.station.NOAA.NDBC:JKYF1:1,2017-11-03T02:00:00Z,25.0530,-80.9040,1.5,33.59,1111122 
ENP,ioos.station.NOAA.NDBC:JKYF1:1,2017-11-03T03:00:00Z,25.0530,-80.9040,1.5,33.64,1111122 
ENP,ioos.station.NOAA.NDBC:JKYF1:1,2017-11-03T05:00:00Z,25.0530,-80.9040,1.5,33.66,1111122 
ENP,ioos.station.NOAA.NDBC:JKYF1:1,2017-11-03T06:00:00Z,25.0530,-80.9040,1.5,33.67,1111122 
ENP,ioos.station.NOAA.NDBC:JKYF1:1,2017-11-03T07:00:00Z,25.0530,-80.9040,1.5,33.51,1111122 
ENP,ioos.station.NOAA.NDBC:JKYF1:1,2017-11-03T08:00:00Z,25.0530,-80.9040,1.5,33.25,1111122 
ENP,ioos.station.NOAA.NDBC:JKYF1:1,2017-11-03T10:00:00Z,25.0530,-80.9040,1.5,33.13,1111122 
ENP,ioos.station.NOAA.NDBC:JKYF1:1,2017-11-03T11:00:00Z,25.0530,-80.9040,1.5,33.15,1111122 
ENP,ioos.station.NOAA.NDBC:JKYF1:1,2017-11-03T12:00:00Z,25.0530,-80.9040,1.5,33.21,1111122 
ENP,ioos.station.NOAA.NDBC:JKYF1:1,2017-11-03T13:00:00Z,25.0530,-80.9040,1.5,33.28,1111122 
ENP,ioos.station.NOAA.NDBC:JKYF1:1,2017-11-03T14:00:00Z,25.0530,-80.9040,1.5,33.24,1111122 
ENP,ioos.station.NOAA.NDBC:JKYF1:1,2017-11-03T15:00:00Z,25.0530,-80.9040,1.5,33.06,1111122 
ENP,ioos.station.NOAA.NDBC:JKYF1:1,2017-11-03T16:00:00Z,25.0530,-80.9040,1.5,32.84,1111122 
ENP,ioos.station.NOAA.NDBC:JKYF1:1,2017-11-03T17:00:00Z,25.0530,-80.9040,1.5,33.25,1111122 
ENP,ioos.station.NOAA.NDBC:JKYF1:1,2017-11-03T18:00:00Z,25.0530,-80.9040,1.5,33.33,1111122 
ENP,ioos.station.NOAA.NDBC:JKYF1:1,2017-11-03T19:00:00Z,25.0530,-80.9040,1.5,33.31,1111122 
ENP,ioos.station.NOAA.NDBC:JKYF1:1,2017-11-03T20:00:00Z,25.0530,-80.9040,1.5,32.79,1111122 
ENP,ioos.station.NOAA.NDBC:JKYF1:1,2017-11-03T21:00:00Z,25.0530,-80.9040,1.5,32.41,1111122 
ENP,ioos.station.NOAA.NDBC:JKYF1:1,2017-11-03T22:00:00Z,25.0530,-80.9040,1.5,32.27,1111122 
ENP,ioos.station.NOAA.NDBC:JKYF1:1,2017-11-03T23:00:00Z,25.0530,-80.9040,1.5,32.28,1111122 
ENP,ioos.station.NOAA.NDBC:JKYF1:1,2017-11-04T00:00:00Z,25.0530,-80.9040,1.5,32.31,1111122 
ENP,ioos.station.NOAA.NDBC:JKYF1:1,2017-11-04T03:00:00Z,25.0530,-80.9040,1.5,32.72,1111122 
ENP,ioos.station.NOAA.NDBC:JKYF1:1,2017-11-04T06:00:00Z,25.0530,-80.9040,1.5,32.75,1111122 
ENP,ioos.station.NOAA.NDBC:JKYF1:1,2017-11-04T07:00:00Z,25.0530,-80.9040,1.5,32.07,1111122 
ENP,ioos.station.NOAA.NDBC:JKYF1:1,2017-11-04T08:00:00Z,25.0530,-80.9040,1.5,31.46,1111122 
ENP,ioos.station.NOAA.NDBC:JKYF1:1,2017-11-04T10:00:00Z,25.0530,-80.9040,1.5,31.07,1111122 
ENP,ioos.station.NOAA.NDBC:JKYF1:1,2017-11-04T11:00:00Z,25.0530,-80.9040,1.5,31.06,1111122 
ENP,ioos.station.NOAA.NDBC:JKYF1:1,2017-11-04T12:00:00Z,25.0530,-80.9040,1.5,31.1,1111122 
ENP,ioos.station.NOAA.NDBC:JKYF1:1,2017-11-04T13:00:00Z,25.0530,-80.9040,1.5,31.14,1111122 
ENP,ioos.station.NOAA.NDBC:JKYF1:1,2017-11-04T14:00:00Z,25.0530,-80.9040,1.5,31.18,1111122 
ENP,ioos.station.NOAA.NDBC:JKYF1:1,2017-11-04T15:00:00Z,25.0530,-80.9040,1.5,31.19,1111122 
ENP,ioos.station.NOAA.NDBC:JKYF1:1,2017-11-04T16:00:00Z,25.0530,-80.9040,1.5,31.1,1111122 
ENP,ioos.station.NOAA.NDBC:JKYF1:1,2017-11-04T17:00:00Z,25.0530,-80.9040,1.5,31.37,1111122 
ENP,ioos.station.NOAA.NDBC:JKYF1:1,2017-11-04T18:00:00Z,25.0530,-80.9040,1.5,31.53,1111122 
ENP,ioos.station.NOAA.NDBC:JKYF1:1,2017-11-04T19:00:00Z,25.0530,-80.9040,1.5,31.59,1111122 
ENP,ioos.station.NOAA.NDBC:JKYF1:1,2017-11-04T20:00:00Z,25.0530,-80.9040,1.5,31.45,1111122 
ENP,ioos.station.NOAA.NDBC:JKYF1:1,2017-11-04T21:00:00Z,25.0530,-80.9040,1.5,30.63,1111122 
ENP,ioos.station.NOAA.NDBC:JKYF1:1,2017-11-04T22:00:00Z,25.0530,-80.9040,1.5,30.35,1111122 
ENP,ioos.station.NOAA.NDBC:JKYF1:1,2017-11-04T23:00:00Z,25.0530,-80.9040,1.5,30.28,1111122 
ENP,ioos.station.NOAA.NDBC:JKYF1:1,2017-11-05T00:00:00Z,25.0530,-80.9040,1.5,30.26,1111122 
ENP,ioos.station.NOAA.NDBC:JKYF1:1,2017-11-05T02:00:00Z,25.0530,-80.9040,1.5,30.37,1111122 
ENP,ioos.station.NOAA.NDBC:JKYF1:1,2017-11-05T03:00:00Z,25.0530,-80.9040,1.5,30.5,1111122 
ENP,ioos.station.NOAA.NDBC:JKYF1:1,2017-11-05T07:00:00Z,25.0530,-80.9040,1.5,30.58,1111122 
ENP,ioos.station.NOAA.NDBC:JKYF1:1,2017-11-05T08:00:00Z,25.0530,-80.9040,1.5,29.85,1111122 
ENP,ioos.station.NOAA.NDBC:JKYF1:1,2017-11-05T09:00:00Z,25.0530,-80.9040,1.5,29.55,1111122 
ENP,ioos.station.NOAA.NDBC:JKYF1:1,2017-11-05T12:00:00Z,25.0530,-80.9040,1.5,29.27,1111122 
ENP,ioos.station.NOAA.NDBC:JKYF1:1,2017-11-05T13:00:00Z,25.0530,-80.9040,1.5,29.28,1111122 
ENP,ioos.station.NOAA.NDBC:JKYF1:1,2017-11-05T14:00:00Z,25.0530,-80.9040,1.5,29.28,1111122 
ENP,ioos.station.NOAA.NDBC:JKYF1:1,2017-11-05T15:00:00Z,25.0530,-80.9040,1.5,29.28,1111122 
ENP,ioos.station.NOAA.NDBC:JKYF1:1,2017-11-05T16:00:00Z,25.0530,-80.9040,1.5,29.28,1111122 
ENP,ioos.station.NOAA.NDBC:JKYF1:1,2017-11-05T17:00:00Z,25.0530,-80.9040,1.5,29.34,1111122 
ENP,ioos.station.NOAA.NDBC:JKYF1:1,2017-11-05T18:00:00Z,25.0530,-80.9040,1.5,29.41,1111122 
ENP,ioos.station.NOAA.NDBC:JKYF1:1,2017-11-05T19:00:00Z,25.0530,-80.9040,1.5,29.44,1111122 
ENP,ioos.station.NOAA.NDBC:JKYF1:1,2017-11-05T20:00:00Z,25.0530,-80.9040,1.5,29.51,1111122 
ENP,ioos.station.NOAA.NDBC:JKYF1:1,2017-11-05T21:00:00Z,25.0530,-80.9040,1.5,29.4,1111122 
ENP,ioos.station.NOAA.NDBC:JKYF1:1,2017-11-05T22:00:00Z,25.0530,-80.9040,1.5,29.27,1111122 
ENP,ioos.station.NOAA.NDBC:JKYF1:1,2017-11-05T23:00:00Z,25.0530,-80.9040,1.5,29.16,1111122 
ENP,ioos.station.NOAA.NDBC:JKYF1:1,2017-11-06T00:00:00Z,25.0530,-80.9040,1.5,29.07,1111122 
ENP,ioos.station.NOAA.NDBC:JKYF1:1,2017-11-06T01:00:00Z,25.0530,-80.9040,1.5,29.05,1111122 
ENP,ioos.station.NOAA.NDBC:JKYF1:1,2017-11-06T04:00:00Z,25.0530,-80.9040,1.5,29.09,1111122 
ENP,ioos.station.NOAA.NDBC:JKYF1:1,2017-11-06T06:00:00Z,25.0530,-80.9040,1.5,29.1,1111122 
ENP,ioos.station.NOAA.NDBC:JKYF1:1,2017-11-06T07:00:00Z,25.0530,-80.9040,1.5,29.12,1111122 
ENP,ioos.station.NOAA.NDBC:JKYF1:1,2017-11-06T08:00:00Z,25.0530,-80.9040,1.5,28.98,1111122 
ENP,ioos.station.NOAA.NDBC:JKYF1:1,2017-11-06T09:00:00Z,25.0530,-80.9040,1.5,28.62,1111122 
ENP,ioos.station.NOAA.NDBC:JKYF1:1,2017-11-06T11:00:00Z,25.0530,-80.9040,1.5,28.45,1111122 
ENP,ioos.station.NOAA.NDBC:JKYF1:1,2017-11-06T12:00:00Z,25.0530,-80.9040,1.5,28.42,1111122 
ENP,ioos.station.NOAA.NDBC:JKYF1:1,2017-11-06T13:00:00Z,25.0530,-80.9040,1.5,28.39,1111122 
ENP,ioos.station.NOAA.NDBC:JKYF1:1,2017-11-06T14:00:00Z,25.0530,-80.9040,1.5,28.42,1111122 
ENP,ioos.station.NOAA.NDBC:JKYF1:1,2017-11-06T15:00:00Z,25.0530,-80.9040,1.5,28.44,1111122 
ENP,ioos.station.NOAA.NDBC:JKYF1:1,2017-11-06T16:00:00Z,25.0530,-80.9040,1.5,28.44,1111122 
ENP,ioos.station.NOAA.NDBC:JKYF1:1,2017-11-06T17:00:00Z,25.0530,-80.9040,1.5,28.51,1111122 
ENP,ioos.station.NOAA.NDBC:JKYF1:1,2017-11-06T18:00:00Z,25.0530,-80.9040,1.5,28.57,1111122 
ENP,ioos.station.NOAA.NDBC:JKYF1:1,2017-11-06T19:00:00Z,25.0530,-80.9040,1.5,28.64,1111122 
ENP,ioos.station.NOAA.NDBC:JKYF1:1,2017-11-06T20:00:00Z,25.0530,-80.9040,1.5,28.68,1111122 
ENP,ioos.station.NOAA.NDBC:JKYF1:1,2017-11-06T21:00:00Z,25.0530,-80.9040,1.5,28.75,1111122 
ENP,ioos.station.NOAA.NDBC:JKYF1:1,2017-11-06T22:00:00Z,25.0530,-80.9040,1.5,28.75,1111122 
ENP,ioos.station.NOAA.NDBC:JKYF1:1,2017-11-06T23:00:00Z,25.0530,-80.9040,1.5,28.68,1111122 
ENP,ioos.station.NOAA.NDBC:JKYF1:1,2017-11-07T00:00:00Z,25.0530,-80.9040,1.5,28.68,1111122 
ENP,ioos.station.NOAA.NDBC:JKYF1:1,2017-11-07T01:00:00Z,25.0530,-80.9040,1.5,28.67,1111122 
ENP,ioos.station.NOAA.NDBC:JKYF1:1,2017-11-07T03:00:00Z,25.0530,-80.9040,1.5,28.65,1111122 
ENP,ioos.station.NOAA.NDBC:JKYF1:1,2017-11-07T04:00:00Z,25.0530,-80.9040,1.5,28.66,1111122 
ENP,ioos.station.NOAA.NDBC:JKYF1:1,2017-11-07T06:00:00Z,25.0530,-80.9040,1.5,28.62,1111122 
ENP,ioos.station.NOAA.NDBC:JKYF1:1,2017-11-07T07:00:00Z,25.0530,-80.9040,1.5,28.62,1111122 
ENP,ioos.station.NOAA.NDBC:JKYF1:1,2017-11-07T08:00:00Z,25.0530,-80.9040,1.5,28.62,1111122 
ENP,ioos.station.NOAA.NDBC:JKYF1:1,2017-11-07T09:00:00Z,25.0530,-80.9040,1.5,28.6,1111122 
ENP,ioos.station.NOAA.NDBC:JKYF1:1,2017-11-07T11:00:00Z,25.0530,-80.9040,1.5,28.37,1111122 
ENP,ioos.station.NOAA.NDBC:JKYF1:1,2017-11-07T12:00:00Z,25.0530,-80.9040,1.5,28.34,1111122 
ENP,ioos.station.NOAA.NDBC:JKYF1:1,2017-11-07T13:00:00Z,25.0530,-80.9040,1.5,28.29,1111122 
ENP,ioos.station.NOAA.NDBC:JKYF1:1,2017-11-07T14:00:00Z,25.0530,-80.9040,1.5,28.28,1111122 
ENP,ioos.station.NOAA.NDBC:JKYF1:1,2017-11-07T15:00:00Z,25.0530,-80.9040,1.5,28.27,1111122 
ENP,ioos.station.NOAA.NDBC:JKYF1:1,2017-11-07T16:00:00Z,25.0530,-80.9040,1.5,28.27,1111122 
ENP,ioos.station.NOAA.NDBC:JKYF1:1,2017-11-07T17:00:00Z,25.0530,-80.9040,1.5,28.28,1111122 
ENP,ioos.station.NOAA.NDBC:JKYF1:1,2017-11-07T18:00:00Z,25.0530,-80.9040,1.5,28.34,1111122 
ENP,ioos.station.NOAA.NDBC:JKYF1:1,2017-11-07T19:00:00Z,25.0530,-80.9040,1.5,28.39,1111122 
ENP,ioos.station.NOAA.NDBC:JKYF1:1,2017-11-07T20:00:00Z,25.0530,-80.9040,1.5,28.44,1111122 
ENP,ioos.station.NOAA.NDBC:JKYF1:1,2017-11-07T21:00:00Z,25.0530,-80.9040,1.5,28.45,1111122 
ENP,ioos.station.NOAA.NDBC:JKYF1:1,2017-11-07T22:00:00Z,25.0530,-80.9040,1.5,28.51,1111122 
ENP,ioos.station.NOAA.NDBC:JKYF1:1,2017-11-07T23:00:00Z,25.0530,-80.9040,1.5,28.52,1111122 
ENP,ioos.station.NOAA.NDBC:JKYF1:1,2017-11-08T00:00:00Z,25.0530,-80.9040,1.5,28.34,1111122 
ENP,ioos.station.NOAA.NDBC:JKYF1:1,2017-11-08T01:00:00Z,25.0530,-80.9040,1.5,28.32,1111122 
ENP,ioos.station.NOAA.NDBC:JKYF1:1,2017-11-08T04:00:00Z,25.0530,-80.9040,1.5,28.23,1111122 
ENP,ioos.station.NOAA.NDBC:JKYF1:1,2017-11-08T06:00:00Z,25.0530,-80.9040,1.5,28.24,1111122 
ENP,ioos.station.NOAA.NDBC:JKYF1:1,2017-11-08T07:00:00Z,25.0530,-80.9040,1.5,28.26,1111122 
ENP,ioos.station.NOAA.NDBC:JKYF1:1,2017-11-08T08:00:00Z,25.0530,-80.9040,1.5,28.3,1111122 
ENP,ioos.station.NOAA.NDBC:JKYF1:1,2017-11-08T09:00:00Z,25.0530,-80.9040,1.5,28.32,1111122 
ENP,ioos.station.NOAA.NDBC:JKYF1:1,2017-11-08T11:00:00Z,25.0530,-80.9040,1.5,28.12,1111122 
ENP,ioos.station.NOAA.NDBC:JKYF1:1,2017-11-08T12:00:00Z,25.0530,-80.9040,1.5,28.09,1111122 
ENP,ioos.station.NOAA.NDBC:JKYF1:1,2017-11-08T13:00:00Z,25.0530,-80.9040,1.5,28.07,1111122 
ENP,ioos.station.NOAA.NDBC:JKYF1:1,2017-11-08T14:00:00Z,25.0530,-80.9040,1.5,28.04,1111122 
ENP,ioos.station.NOAA.NDBC:JKYF1:1,2017-11-08T16:00:00Z,25.0530,-80.9040,1.5,28.05,1111122 
ENP,ioos.station.NOAA.NDBC:JKYF1:1,2017-11-08T17:00:00Z,25.0530,-80.9040,1.5,28.11,1111122 
ENP,ioos.station.NOAA.NDBC:JKYF1:1,2017-11-08T18:00:00Z,25.0530,-80.9040,1.5,28.16,1111122 
ENP,ioos.station.NOAA.NDBC:JKYF1:1,2017-11-08T19:00:00Z,25.0530,-80.9040,1.5,28.18,1111122 
ENP,ioos.station.NOAA.NDBC:JKYF1:1,2017-11-08T20:00:00Z,25.0530,-80.9040,1.5,28.21,1111122 
ENP,ioos.station.NOAA.NDBC:JKYF1:1,2017-11-08T21:00:00Z,25.0530,-80.9040,1.5,28.24,1111122 
ENP,ioos.station.NOAA.NDBC:JKYF1:1,2017-11-08T22:00:00Z,25.0530,-80.9040,1.5,28.32,1111122 
ENP,ioos.station.NOAA.NDBC:JKYF1:1,2017-11-08T23:00:00Z,25.0530,-80.9040,1.5,28.34,1111122 
ENP,ioos.station.NOAA.NDBC:JKYF1:1,2017-11-09T00:00:00Z,25.0530,-80.9040,1.5,28.25,1111122 
ENP,ioos.station.NOAA.NDBC:JKYF1:1,2017-11-09T01:00:00Z,25.0530,-80.9040,1.5,28.09,1111122 
ENP,ioos.station.NOAA.NDBC:JKYF1:1,2017-11-09T03:00:00Z,25.0530,-80.9040,1.5,27.97,1111122 
ENP,ioos.station.NOAA.NDBC:JKYF1:1,2017-11-09T04:00:00Z,25.0530,-80.9040,1.5,27.98,1111122 
ENP,ioos.station.NOAA.NDBC:JKYF1:1,2017-11-09T06:00:00Z,25.0530,-80.9040,1.5,28.09,1111122 
ENP,ioos.station.NOAA.NDBC:JKYF1:1,2017-11-09T07:00:00Z,25.0530,-80.9040,1.5,28.11,1111122 
ENP,ioos.station.NOAA.NDBC:JKYF1:1,2017-11-09T08:00:00Z,25.0530,-80.9040,1.5,28.12,1111122 
ENP,ioos.station.NOAA.NDBC:JKYF1:1,2017-11-09T09:00:00Z,25.0530,-80.9040,1.5,28.16,1111122 
ENP,ioos.station.NOAA.NDBC:JKYF1:1,2017-11-09T11:00:00Z,25.0530,-80.9040,1.5,27.98,1111122 
ENP,ioos.station.NOAA.NDBC:JKYF1:1,2017-11-09T12:00:00Z,25.0530,-80.9040,1.5,27.92,1111122 
ENP,ioos.station.NOAA.NDBC:JKYF1:1,2017-11-09T13:00:00Z,25.0530,-80.9040,1.5,27.86,1111122 
ENP,ioos.station.NOAA.NDBC:JKYF1:1,2017-11-09T14:00:00Z,25.0530,-80.9040,1.5,27.84,1111122 
ENP,ioos.station.NOAA.NDBC:JKYF1:1,2017-11-09T15:00:00Z,25.0530,-80.9040,1.5,27.83,1111122 
ENP,ioos.station.NOAA.NDBC:JKYF1:1,2017-11-09T16:00:00Z,25.0530,-80.9040,1.5,27.84,1111122 
ENP,ioos.station.NOAA.NDBC:JKYF1:1,2017-11-09T17:00:00Z,25.0530,-80.9040,1.5,27.94,1111122 
ENP,ioos.station.NOAA.NDBC:JKYF1:1,2017-11-09T18:00:00Z,25.0530,-80.9040,1.5,28.02,1111122 
ENP,ioos.station.NOAA.NDBC:JKYF1:1,2017-11-09T19:00:00Z,25.0530,-80.9040,1.5,28.1,1111122 
ENP,ioos.station.NOAA.NDBC:JKYF1:1,2017-11-09T20:00:00Z,25.0530,-80.9040,1.5,28.17,1111122 
ENP,ioos.station.NOAA.NDBC:JKYF1:1,2017-11-09T21:00:00Z,25.0530,-80.9040,1.5,28.24,1111122 
ENP,ioos.station.NOAA.NDBC:JKYF1:1,2017-11-09T22:00:00Z,25.0530,-80.9040,1.5,28.31,1111122 
ENP,ioos.station.NOAA.NDBC:JKYF1:1,2017-11-09T23:00:00Z,25.0530,-80.9040,1.5,28.37,1111122 
ENP,ioos.station.NOAA.NDBC:JKYF1:1,2017-11-10T00:00:00Z,25.0530,-80.9040,1.5,28.3,1111122 
ENP,ioos.station.NOAA.NDBC:JKYF1:1,2017-11-10T01:00:00Z,25.0530,-80.9040,1.5,28.19,1111122 
ENP,ioos.station.NOAA.NDBC:JKYF1:1,2017-11-10T03:00:00Z,25.0530,-80.9040,1.5,28.07,1111122 
ENP,ioos.station.NOAA.NDBC:JKYF1:1,2017-11-10T04:00:00Z,25.0530,-80.9040,1.5,27.99,1111122 
ENP,ioos.station.NOAA.NDBC:JKYF1:1,2017-11-10T06:00:00Z,25.0530,-80.9040,1.5,27.99,1111122 
ENP,ioos.station.NOAA.NDBC:JKYF1:1,2017-11-10T07:00:00Z,25.0530,-80.9040,1.5,28.06,1111122 
ENP,ioos.station.NOAA.NDBC:JKYF1:1,2017-11-10T08:00:00Z,25.0530,-80.9040,1.5,28.11,1111122 
ENP,ioos.station.NOAA.NDBC:JKYF1:1,2017-11-10T09:00:00Z,25.0530,-80.9040,1.5,28.15,1111122 
ENP,ioos.station.NOAA.NDBC:JKYF1:1,2017-11-10T11:00:00Z,25.0530,-80.9040,1.5,28.11,1111122 
ENP,ioos.station.NOAA.NDBC:JKYF1:1,2017-11-10T12:00:00Z,25.0530,-80.9040,1.5,28.02,1111122 
ENP,ioos.station.NOAA.NDBC:JKYF1:1,2017-11-10T13:00:00Z,25.0530,-80.9040,1.5,27.99,1111122 
ENP,ioos.station.NOAA.NDBC:JKYF1:1,2017-11-10T14:00:00Z,25.0530,-80.9040,1.5,27.98,1111122 
ENP,ioos.station.NOAA.NDBC:JKYF1:1,2017-11-10T15:00:00Z,25.0530,-80.9040,1.5,27.99,1111122 
ENP,ioos.station.NOAA.NDBC:JKYF1:1,2017-11-10T16:00:00Z,25.0530,-80.9040,1.5,28.01,1111122 
ENP,ioos.station.NOAA.NDBC:JKYF1:1,2017-11-10T17:00:00Z,25.0530,-80.9040,1.5,28.04,1111122 
ENP,ioos.station.NOAA.NDBC:JKYF1:1,2017-11-10T18:00:00Z,25.0530,-80.9040,1.5,28.07,1111122 
ENP,ioos.station.NOAA.NDBC:JKYF1:1,2017-11-10T19:00:00Z,25.0530,-80.9040,1.5,28.09,1111122 
ENP,ioos.station.NOAA.NDBC:JKYF1:1,2017-11-10T20:00:00Z,25.0530,-80.9040,1.5,28.14,1111122 
ENP,ioos.station.NOAA.NDBC:JKYF1:1,2017-11-10T21:00:00Z,25.0530,-80.9040,1.5,28.21,1111122 
ENP,ioos.station.NOAA.NDBC:JKYF1:1,2017-11-10T22:00:00Z,25.0530,-80.9040,1.5,28.29,1111122 
ENP,ioos.station.NOAA.NDBC:JKYF1:1,2017-11-10T23:00:00Z,25.0530,-80.9040,1.5,28.36,1111122 
ENP,ioos.station.NOAA.NDBC:JKYF1:1,2017-11-11T00:00:00Z,25.0530,-80.9040,1.5,28.36,1111122 
ENP,ioos.station.NOAA.NDBC:JKYF1:1,2017-11-11T01:00:00Z,25.0530,-80.9040,1.5,28.37,1111122 
ENP,ioos.station.NOAA.NDBC:JKYF1:1,2017-11-11T03:00:00Z,25.0530,-80.9040,1.5,28.29,1111122 
ENP,ioos.station.NOAA.NDBC:JKYF1:1,2017-11-11T04:00:00Z,25.0530,-80.9040,1.5,28.27,1111122 
ENP,ioos.station.NOAA.NDBC:JKYF1:1,2017-11-11T06:00:00Z,25.0530,-80.9040,1.5,28.28,1111122 
ENP,ioos.station.NOAA.NDBC:JKYF1:1,2017-11-11T07:00:00Z,25.0530,-80.9040,1.5,28.34,1111122 
ENP,ioos.station.NOAA.NDBC:JKYF1:1,2017-11-11T08:00:00Z,25.0530,-80.9040,1.5,28.39,1111122 
ENP,ioos.station.NOAA.NDBC:JKYF1:1,2017-11-11T09:00:00Z,25.0530,-80.9040,1.5,28.42,1111122 
ENP,ioos.station.NOAA.NDBC:JKYF1:1,2017-11-11T11:00:00Z,25.0530,-80.9040,1.5,28.46,1111122 
ENP,ioos.station.NOAA.NDBC:JKYF1:1,2017-11-11T12:00:00Z,25.0530,-80.9040,1.5,28.47,1111122 
ENP,ioos.station.NOAA.NDBC:JKYF1:1,2017-11-11T13:00:00Z,25.0530,-80.9040,1.5,28.47,1111122 
ENP,ioos.station.NOAA.NDBC:JKYF1:1,2017-11-11T14:00:00Z,25.0530,-80.9040,1.5,28.47,1111122 
ENP,ioos.station.NOAA.NDBC:JKYF1:1,2017-11-11T15:00:00Z,25.0530,-80.9040,1.5,28.45,1111122 
ENP,ioos.station.NOAA.NDBC:JKYF1:1,2017-11-11T16:00:00Z,25.0530,-80.9040,1.5,28.39,1111122 
ENP,ioos.station.NOAA.NDBC:JKYF1:1,2017-11-11T17:00:00Z,25.0530,-80.9040,1.5,28.44,1111122 
ENP,ioos.station.NOAA.NDBC:JKYF1:1,2017-11-11T18:00:00Z,25.0530,-80.9040,1.5,28.6,1111122 
ENP,ioos.station.NOAA.NDBC:JKYF1:1,2017-11-11T19:00:00Z,25.0530,-80.9040,1.5,28.66,1111122 
ENP,ioos.station.NOAA.NDBC:JKYF1:1,2017-11-11T20:00:00Z,25.0530,-80.9040,1.5,28.73,1111122 
ENP,ioos.station.NOAA.NDBC:JKYF1:1,2017-11-11T21:00:00Z,25.0530,-80.9040,1.5,28.83,1111122 
ENP,ioos.station.NOAA.NDBC:JKYF1:1,2017-11-11T22:00:00Z,25.0530,-80.9040,1.5,28.94,1111122 
ENP,ioos.station.NOAA.NDBC:JKYF1:1,2017-11-11T23:00:00Z,25.0530,-80.9040,1.5,29.0,1111122 
ENP,ioos.station.NOAA.NDBC:JKYF1:1,2017-11-12T00:00:00Z,25.0530,-80.9040,1.5,29.03,1111122 
ENP,ioos.station.NOAA.NDBC:JKYF1:1,2017-11-12T01:00:00Z,25.0530,-80.9040,1.5,29.02,1111122 
ENP,ioos.station.NOAA.NDBC:JKYF1:1,2017-11-12T04:00:00Z,25.0530,-80.9040,1.5,28.67,1111122 
ENP,ioos.station.NOAA.NDBC:JKYF1:1,2017-11-12T07:00:00Z,25.0530,-80.9040,1.5,28.64,1111122 
ENP,ioos.station.NOAA.NDBC:JKYF1:1,2017-11-12T08:00:00Z,25.0530,-80.9040,1.5,28.66,1111122 
ENP,ioos.station.NOAA.NDBC:JKYF1:1,2017-11-12T09:00:00Z,25.0530,-80.9040,1.5,28.74,1111122 
ENP,ioos.station.NOAA.NDBC:JKYF1:1,2017-11-12T12:00:00Z,25.0530,-80.9040,1.5,28.85,1111122 
ENP,ioos.station.NOAA.NDBC:JKYF1:1,2017-11-12T13:00:00Z,25.0530,-80.9040,1.5,28.85,1111122 
ENP,ioos.station.NOAA.NDBC:JKYF1:1,2017-11-12T14:00:00Z,25.0530,-80.9040,1.5,28.79,1111122 
ENP,ioos.station.NOAA.NDBC:JKYF1:1,2017-11-12T15:00:00Z,25.0530,-80.9040,1.5,28.72,1111122 
ENP,ioos.station.NOAA.NDBC:JKYF1:1,2017-11-12T16:00:00Z,25.0530,-80.9040,1.5,28.71,1111122 
ENP,ioos.station.NOAA.NDBC:JKYF1:1,2017-11-12T17:00:00Z,25.0530,-80.9040,1.5,28.72,1111122 
ENP,ioos.station.NOAA.NDBC:JKYF1:1,2017-11-12T18:00:00Z,25.0530,-80.9040,1.5,28.68,1111122 
ENP,ioos.station.NOAA.NDBC:JKYF1:1,2017-11-12T19:00:00Z,25.0530,-80.9040,1.5,28.66,1111122 
ENP,ioos.station.NOAA.NDBC:JKYF1:1,2017-11-12T20:00:00Z,25.0530,-80.9040,1.5,28.69,1111122 
ENP,ioos.station.NOAA.NDBC:JKYF1:1,2017-11-12T21:00:00Z,25.0530,-80.9040,1.5,28.7,1111122 
ENP,ioos.station.NOAA.NDBC:JKYF1:1,2017-11-12T22:00:00Z,25.0530,-80.9040,1.5,28.71,1111122 
ENP,ioos.station.NOAA.NDBC:JKYF1:1,2017-11-12T23:00:00Z,25.0530,-80.9040,1.5,28.7,1111122 
ENP,ioos.station.NOAA.NDBC:JKYF1:1,2017-11-13T00:00:00Z,25.0530,-80.9040,1.5,28.66,1111122 
ENP,ioos.station.NOAA.NDBC:JKYF1:1,2017-11-13T01:00:00Z,25.0530,-80.9040,1.5,28.65,1111122 
ENP,ioos.station.NOAA.NDBC:JKYF1:1,2017-11-13T03:00:00Z,25.0530,-80.9040,1.5,28.64,1111122 
ENP,ioos.station.NOAA.NDBC:JKYF1:1,2017-11-13T04:00:00Z,25.0530,-80.9040,1.5,28.67,1111122 
ENP,ioos.station.NOAA.NDBC:JKYF1:1,2017-11-13T07:00:00Z,25.0530,-80.9040,1.5,28.56,1111122 
ENP,ioos.station.NOAA.NDBC:JKYF1:1,2017-11-13T08:00:00Z,25.0530,-80.9040,1.5,28.51,1111122 
ENP,ioos.station.NOAA.NDBC:JKYF1:1,2017-11-13T09:00:00Z,25.0530,-80.9040,1.5,28.51,1111122 
ENP,ioos.station.NOAA.NDBC:JKYF1:1,2017-11-13T11:00:00Z,25.0530,-80.9040,1.5,28.52,1111122 
ENP,ioos.station.NOAA.NDBC:JKYF1:1,2017-11-13T12:00:00Z,25.0530,-80.9040,1.5,28.51,1111122 
ENP,ioos.station.NOAA.NDBC:JKYF1:1,2017-11-13T13:00:00Z,25.0530,-80.9040,1.5,28.51,1111122 
ENP,ioos.station.NOAA.NDBC:JKYF1:1,2017-11-13T14:00:00Z,25.0530,-80.9040,1.5,28.5,1111122 
ENP,ioos.station.NOAA.NDBC:JKYF1:1,2017-11-13T15:00:00Z,25.0530,-80.9040,1.5,28.49,1111122 
ENP,ioos.station.NOAA.NDBC:JKYF1:1,2017-11-13T16:00:00Z,25.0530,-80.9040,1.5,28.52,1111122 
ENP,ioos.station.NOAA.NDBC:JKYF1:1,2017-11-13T17:00:00Z,25.0530,-80.9040,1.5,28.56,1111122 
ENP,ioos.station.NOAA.NDBC:JKYF1:1,2017-11-13T18:00:00Z,25.0530,-80.9040,1.5,28.58,1111122 
ENP,ioos.station.NOAA.NDBC:JKYF1:1,2017-11-13T19:00:00Z,25.0530,-80.9040,1.5,28.59,1111122 
ENP,ioos.station.NOAA.NDBC:JKYF1:1,2017-11-13T20:00:00Z,25.0530,-80.9040,1.5,28.54,1111122 
ENP,ioos.station.NOAA.NDBC:JKYF1:1,2017-11-13T21:00:00Z,25.0530,-80.9040,1.5,28.53,1111122 
ENP,ioos.station.NOAA.NDBC:JKYF1:1,2017-11-13T22:00:00Z,25.0530,-80.9040,1.5,28.52,1111122 
ENP,ioos.station.NOAA.NDBC:JKYF1:1,2017-11-13T23:00:00Z,25.0530,-80.9040,1.5,28.53,1111122 
ENP,ioos.station.NOAA.NDBC:JKYF1:1,2017-11-14T00:00:00Z,25.0530,-80.9040,1.5,28.55,1111122 